• In Denmark
  • List of Countries
  • For 7 days
  • Water Temperature
  • Satellite Maps
  • Weather Map
  • Weather Widgets
  • user-avatar
    Login

    Hourly Weather Dankon

    Today, 16 December, Saturday

    Time Temperature Precipitation Wind Pressure Humidity
    00:00 +17°C° 0 mm 0 mps 705 mmHg 92%
    01:00 +16°C° 0 mm 0 mps 705 mmHg 94%
    02:00 +16°C° 0 mm 0 mps 705 mmHg 93%
    03:00 +17°C° 0 mm 0 mps 706 mmHg 92%
    04:00 +19°C° 0 mm 1 mps 706 mmHg 92%
    05:00 +19°C° 0 mm 1 mps 706 mmHg 92%
    06:00 +19°C° 0 mm 1 mps 706 mmHg 92%
    07:00 +19°C° 0 mm 1 mps 707 mmHg 92%
    08:00 +20°C° 0 mm 1 mps 707 mmHg 87%
    09:00 +21°C° 0 mm 1 mps 708 mmHg 82%
    10:00 +22°C° 0 mm 1 mps 708 mmHg 77%
    11:00 +23°C° 0.1 mm 1 mps 708 mmHg 73%
    12:00 +24°C° 0.1 mm 1 mps 708 mmHg 68%
    13:00 +25°C° 0 mm 1 mps 707 mmHg 64%
    14:00 +25°C° 0 mm 1 mps 707 mmHg 64%
    15:00 +25°C° 0 mm 1 mps 707 mmHg 64%
    16:00 +24°C° 0 mm 1 mps 706 mmHg 64%
    17:00 +23°C° 0 mm 1 mps 706 mmHg 72%
    18:00 +21°C° 0 mm 1 mps 707 mmHg 80%
    19:00 +17°C° 0 mm 0 mps 706 mmHg 93%
    20:00 +18°C° 0 mm 1 mps 707 mmHg 94%
    21:00 +18°C° 0 mm 1 mps 707 mmHg 94%
    22:00 +18°C° 0 mm 1 mps 707 mmHg 95%
    23:00 +16°C° 0 mm 1 mps 707 mmHg 95%

    Tomorrow, 17 December, Sunday

    Time Temperature Precipitation Wind Pressure Humidity
    00:00 +16°C° 0 mm 1 mps 707 mmHg 95%
    01:00 +15°C° 0 mm 1 mps 707 mmHg 96%
    02:00 +15°C° 0 mm 1 mps 707 mmHg 95%
    03:00 +15°C° 0 mm 1 mps 707 mmHg 94%
    04:00 +15°C° 0 mm 1 mps 707 mmHg 93%
    05:00 +14°C° 0 mm 1 mps 708 mmHg 94%
    06:00 +14°C° 0 mm 1 mps 708 mmHg 95%
    07:00 +13°C° 0 mm 1 mps 708 mmHg 97%
    08:00 +16°C° 0 mm 1 mps 709 mmHg 85%
    09:00 +19°C° 0 mm 1 mps 709 mmHg 73%
    10:00 +21°C° 0 mm 1 mps 710 mmHg 61%
    11:00 +22°C° 0 mm 1 mps 709 mmHg 55%
    12:00 +24°C° 0 mm 1 mps 709 mmHg 49%
    13:00 +26°C° 0 mm 1 mps 708 mmHg 44%
    14:00 +26°C° 0 mm 1 mps 708 mmHg 44%
    15:00 +25°C° 0 mm 1 mps 707 mmHg 45%
    16:00 +25°C° 0 mm 1 mps 706 mmHg 45%
    17:00 +23°C° 0 mm 1 mps 706 mmHg 55%
    18:00 +20°C° 0 mm 1 mps 707 mmHg 65%
    19:00 +15°C° 0 mm 0 mps 707 mmHg 74%
    20:00 +15°C° 0 mm 0 mps 707 mmHg 77%
    21:00 +15°C° 0 mm 1 mps 707 mmHg 79%
    22:00 +14°C° 0 mm 1 mps 708 mmHg 81%
    23:00 +13°C° 0 mm 1 mps 708 mmHg 82%

    Day after tomorrow, 18 December, Monday

    Time Temperature Precipitation Wind Pressure Humidity
    00:00 +13°C° 0 mm 1 mps 708 mmHg 83%
    01:00 +12°C° 0 mm 1 mps 708 mmHg 84%
    02:00 +12°C° 0 mm 1 mps 707 mmHg 84%
    03:00 +11°C° 0 mm 1 mps 707 mmHg 84%
    04:00 +11°C° 0 mm 1 mps 707 mmHg 84%
    05:00 +10°C° 0 mm 1 mps 707 mmHg 84%
    06:00 +10°C° 0 mm 1 mps 708 mmHg 83%
    07:00 +10°C° 0 mm 1 mps 708 mmHg 83%
    08:00 +13°C° 0 mm 1 mps 709 mmHg 70%
    09:00 +16°C° 0 mm 1 mps 709 mmHg 58%
    10:00 +20°C° 0 mm 1 mps 710 mmHg 45%
    11:00 +22°C° 0 mm 1 mps 709 mmHg 42%
    12:00 +24°C° 0 mm 1 mps 709 mmHg 38%
    13:00 +25°C° 0 mm 1 mps 708 mmHg 35%
    14:00 +25°C° 0 mm 1 mps 708 mmHg 36%
    15:00 +25°C° 0 mm 1 mps 707 mmHg 37%
    16:00 +25°C° 0 mm 1 mps 706 mmHg 38%
    17:00 +22°C° 0 mm 1 mps 707 mmHg 47%
    18:00 +19°C° 0 mm 1 mps 707 mmHg 56%
    19:00 +15°C° 0 mm 1 mps 707 mmHg 65%
    20:00 +14°C° 0 mm 1 mps 708 mmHg 67%
    21:00 +13°C° 0 mm 1 mps 708 mmHg 68%
    22:00 +12°C° 0 mm 1 mps 709 mmHg 70%
    23:00 +12°C° 0 mm 1 mps 709 mmHg 71%

    19 December, Tuesday

    Time Temperature Precipitation Wind Pressure Humidity
    00:00 +11°C° 0 mm 1 mps 709 mmHg 71%
    01:00 +10°C° 0 mm 1 mps 709 mmHg 72%
    02:00 +10°C° 0 mm 1 mps 708 mmHg 73%
    03:00 +9°C° 0 mm 1 mps 708 mmHg 75%
    04:00 +9°C° 0 mm 1 mps 708 mmHg 76%
    05:00 +8°C° 0 mm 1 mps 709 mmHg 77%
    06:00 +8°C° 0 mm 1 mps 709 mmHg 77%
    07:00 +8°C° 0 mm 1 mps 710 mmHg 78%
    08:00 +11°C° 0 mm 1 mps 710 mmHg 65%
    09:00 +14°C° 0 mm 2 mps 711 mmHg 51%
    10:00 +17°C° 0 mm 2 mps 711 mmHg 38%
    11:00 +18°C° 0 mm 2 mps 710 mmHg 35%
    12:00 +20°C° 0 mm 2 mps 710 mmHg 32%
    13:00 +23°C° 0 mm 2 mps 709 mmHg 29%
    14:00 +23°C° 0 mm 2 mps 708 mmHg 30%
    15:00 +23°C° 0 mm 2 mps 708 mmHg 31%
    16:00 +23°C° 0 mm 2 mps 707 mmHg 32%
    17:00 +20°C° 0 mm 1 mps 707 mmHg 40%
    18:00 +16°C° 0 mm 1 mps 708 mmHg 49%
    19:00 +13°C° 0 mm 1 mps 708 mmHg 57%
    20:00 +12°C° 0 mm 1 mps 708 mmHg 59%
    21:00 +12°C° 0 mm 1 mps 709 mmHg 62%
    22:00 +11°C° 0 mm 1 mps 709 mmHg 64%
    23:00 +10°C° 0 mm 1 mps 709 mmHg 66%

    20 December, Wednesday

    Time Temperature Precipitation Wind Pressure Humidity
    00:00 +9°C° 0 mm 1 mps 709 mmHg 67%
    01:00 +9°C° 0 mm 1 mps 709 mmHg 69%
    02:00 +8°C° 0 mm 1 mps 709 mmHg 71%
    03:00 +8°C° 0 mm 1 mps 709 mmHg 73%
    04:00 +7°C° 0 mm 1 mps 709 mmHg 74%
    05:00 +7°C° 0 mm 1 mps 709 mmHg 75%
    06:00 +7°C° 0 mm 1 mps 709 mmHg 75%
    07:00 +6°C° 0 mm 1 mps 710 mmHg 76%
    08:00 +10°C° 0 mm 1 mps 710 mmHg 61%
    09:00 +13°C° 0 mm 2 mps 711 mmHg 47%
    10:00 +17°C° 0 mm 2 mps 711 mmHg 32%
    11:00 +18°C° 0 mm 2 mps 711 mmHg 28%
    12:00 +20°C° 0 mm 2 mps 710 mmHg 25%
    13:00 +21°C° 0 mm 2 mps 709 mmHg 21%
    14:00 +21°C° 0 mm 2 mps 709 mmHg 22%
    15:00 +21°C° 0 mm 2 mps 708 mmHg 23%
    16:00 +23°C° 0 mm 2 mps 708 mmHg 24%
    17:00 +19°C° 0 mm 2 mps 708 mmHg 31%
    18:00 +16°C° 0 mm 1 mps 708 mmHg 39%
    19:00 +13°C° 0 mm 1 mps 709 mmHg 46%
    20:00 +11°C° 0 mm 1 mps 709 mmHg 48%
    21:00 +10°C° 0 mm 1 mps 709 mmHg 50%
    22:00 +9°C° 0 mm 1 mps 710 mmHg 52%
    23:00 +9°C° 0 mm 1 mps 710 mmHg 54%

    21 December, Thursday

    Time Temperature Precipitation Wind Pressure Humidity
    00:00 +8°C° 0 mm 1 mps 709 mmHg 56%
    01:00 +7°C° 0 mm 1 mps 709 mmHg 57%
    02:00 +7°C° 0 mm 1 mps 709 mmHg 59%
    03:00 +6°C° 0 mm 1 mps 709 mmHg 60%
    04:00 +6°C° 0 mm 1 mps 709 mmHg 62%
    05:00 +6°C° 0 mm 1 mps 709 mmHg 62%
    06:00 +5°C° 0 mm 1 mps 709 mmHg 63%
    07:00 +5°C° 0 mm 1 mps 709 mmHg 63%
    08:00 +9°C° 0 mm 1 mps 709 mmHg 52%
    09:00 +12°C° 0 mm 1 mps 710 mmHg 41%
    10:00 +16°C° 0 mm 1 mps 710 mmHg 30%
    11:00 +19°C° 0 mm 1 mps 709 mmHg 27%
    12:00 +21°C° 0 mm 1 mps 708 mmHg 24%
    13:00 +23°C° 0 mm 1 mps 707 mmHg 20%
    14:00 +23°C° 0 mm 1 mps 707 mmHg 22%
    15:00 +23°C° 0 mm 1 mps 706 mmHg 24%
    16:00 +23°C° 0 mm 1 mps 706 mmHg 25%
    17:00 +20°C° 0 mm 1 mps 706 mmHg 33%
    18:00 +16°C° 0 mm 1 mps 706 mmHg 41%
    19:00 +12°C° 0 mm 0 mps 706 mmHg 48%
    20:00 +11°C° 0 mm 0 mps 706 mmHg 50%
    21:00 +11°C° 0 mm 1 mps 707 mmHg 52%
    22:00 +10°C° 0 mm 1 mps 707 mmHg 53%
    23:00 +10°C° 0 mm 1 mps 706 mmHg 54%
    Show more

    XHprof extension not loaded